When you browse on this site, cookies collect data to enhance your experience and personalize the content and advertising you see.
Visit our Privacy Policy to learn more. By continuing to use the site, you agree to this use of cookies and data.
  • In Lithuania
  • List of Countries
  • For 7 days
  • Water Temperature
  • Satellite Maps
  • Weather Map
  • Weather Widgets
  • user-avatar
    Login

    Hourly Weather Bebington

    Today, 13 December, Thursday

    Time Temperature Precipitation Wind Pressure Humidity
    00:00 0°C° 0 mm 9 mps 759 mmHg 75%
    01:00 0°C° 0 mm 9 mps 759 mmHg 75%
    02:00 0°C° 0 mm 9 mps 759 mmHg 76%
    03:00 0°C° 0 mm 10 mps 758 mmHg 77%
    04:00 0°C° 0 mm 10 mps 758 mmHg 77%
    05:00 0°C° 0 mm 9 mps 758 mmHg 78%
    06:00 0°C° 0 mm 9 mps 758 mmHg 78%
    07:00 0°C° 0 mm 9 mps 759 mmHg 78%
    08:00 0°C° 0 mm 9 mps 759 mmHg 77%
    09:00 0°C° 0 mm 9 mps 759 mmHg 77%
    10:00 0°C° 0 mm 9 mps 759 mmHg 74%
    11:00 +1°C° 0 mm 9 mps 760 mmHg 72%
    12:00 +1°C° 0 mm 8 mps 760 mmHg 70%
    13:00 +1°C° 0 mm 8 mps 760 mmHg 71%
    14:00 +1°C° 0 mm 8 mps 760 mmHg 71%
    15:00 +1°C° 0 mm 8 mps 761 mmHg 72%
    16:00 +2°C° 0 mm 7 mps 761 mmHg 74%
    17:00 0°C° 0 mm 7 mps 761 mmHg 76%
    18:00 0°C° 0 mm 7 mps 762 mmHg 78%
    19:00 0°C° 0 mm 7 mps 762 mmHg 79%
    20:00 -1°C° 0 mm 6 mps 762 mmHg 80%
    21:00 -1°C° 0 mm 6 mps 763 mmHg 81%
    22:00 -1°C° 0 mm 6 mps 763 mmHg 82%
    23:00 0°C° 0 mm 5 mps 764 mmHg 83%

    Tomorrow, 14 December, Friday

    Time Temperature Precipitation Wind Pressure Humidity
    00:00 0°C° 0 mm 5 mps 764 mmHg 84%
    01:00 -1°C° 0 mm 5 mps 764 mmHg 85%
    02:00 -1°C° 0 mm 5 mps 764 mmHg 86%
    03:00 -1°C° 0 mm 5 mps 764 mmHg 87%
    04:00 -1°C° 0 mm 5 mps 764 mmHg 86%
    05:00 -1°C° 0 mm 5 mps 764 mmHg 86%
    06:00 -1°C° 0 mm 5 mps 764 mmHg 86%
    07:00 -1°C° 0 mm 5 mps 764 mmHg 85%
    08:00 -1°C° 0 mm 5 mps 764 mmHg 84%
    09:00 -1°C° 0 mm 5 mps 764 mmHg 83%
    10:00 -1°C° 0 mm 6 mps 764 mmHg 78%
    11:00 -1°C° 0 mm 6 mps 764 mmHg 72%
    12:00 0°C° 0 mm 7 mps 764 mmHg 67%
    13:00 +1°C° 0 mm 6 mps 764 mmHg 68%
    14:00 +1°C° 0 mm 6 mps 764 mmHg 69%
    15:00 +1°C° 0 mm 6 mps 764 mmHg 70%
    16:00 +1°C° 0 mm 6 mps 764 mmHg 73%
    17:00 -1°C° 0 mm 6 mps 763 mmHg 75%
    18:00 -1°C° 0 mm 6 mps 763 mmHg 77%
    19:00 -1°C° 0 mm 7 mps 763 mmHg 77%
    20:00 -1°C° 0 mm 7 mps 763 mmHg 76%
    21:00 -1°C° 0 mm 8 mps 763 mmHg 76%
    22:00 -1°C° 0 mm 8 mps 762 mmHg 76%
    23:00 -1°C° 0 mm 8 mps 762 mmHg 76%

    Day after tomorrow, 15 December, Saturday

    Time Temperature Precipitation Wind Pressure Humidity
    00:00 -1°C° 0 mm 7 mps 762 mmHg 76%
    01:00 -1°C° 0 mm 8 mps 762 mmHg 75%
    02:00 -1°C° 0 mm 8 mps 761 mmHg 74%
    03:00 -1°C° 0 mm 8 mps 761 mmHg 74%
    04:00 -1°C° 0 mm 9 mps 760 mmHg 74%
    05:00 -1°C° 0 mm 9 mps 759 mmHg 75%
    06:00 -2°C° 0 mm 10 mps 758 mmHg 76%
    07:00 -2°C° 0.3 mm 10 mps 757 mmHg 75%
    08:00 -1°C° 0.3 mm 11 mps 756 mmHg 75%
    09:00 -1°C° 0.3 mm 11 mps 756 mmHg 75%
    10:00 -1°C° 0.4 mm 12 mps 754 mmHg 74%
    11:00 -1°C° 0.4 mm 12 mps 753 mmHg 73%
    12:00 0°C° 0.4 mm 13 mps 752 mmHg 72%
    13:00 0°C° 0.6 mm 13 mps 750 mmHg 76%
    14:00 0°C° 0.6 mm 13 mps 749 mmHg 79%
    15:00 0°C° 0.6 mm 13 mps 747 mmHg 83%
    16:00 +1°C° 1.1 mm 13 mps 746 mmHg 84%
    17:00 +3°C° 1.1 mm 13 mps 744 mmHg 85%
    18:00 +3°C° 1.1 mm 12 mps 742 mmHg 86%
    19:00 +4°C° 0.2 mm 12 mps 742 mmHg 83%
    20:00 +5°C° 0.2 mm 12 mps 742 mmHg 79%
    21:00 +5°C° 0.2 mm 13 mps 741 mmHg 76%
    22:00 +5°C° 0.1 mm 12 mps 743 mmHg 75%
    23:00 +4°C° 0.1 mm 11 mps 744 mmHg 74%

    16 December, Sunday

    Time Temperature Precipitation Wind Pressure Humidity
    00:00 +5°C° 0.1 mm 10 mps 745 mmHg 74%
    01:00 +5°C° 0.1 mm 9 mps 746 mmHg 75%
    02:00 +4°C° 0.1 mm 8 mps 747 mmHg 75%
    03:00 +4°C° 0.1 mm 7 mps 748 mmHg 76%
    04:00 +3°C° 0 mm 6 mps 749 mmHg 79%
    05:00 +3°C° 0 mm 6 mps 749 mmHg 81%
    06:00 +2°C° 0 mm 5 mps 749 mmHg 83%
    07:00 +2°C° 0 mm 5 mps 750 mmHg 85%
    08:00 +2°C° 0 mm 5 mps 750 mmHg 87%
    09:00 +2°C° 0 mm 5 mps 750 mmHg 88%
    10:00 +3°C° 0.1 mm 5 mps 751 mmHg 86%
    11:00 +5°C° 0.1 mm 5 mps 751 mmHg 84%
    12:00 +6°C° 0.1 mm 5 mps 751 mmHg 82%
    13:00 +5°C° 0.3 mm 5 mps 751 mmHg 83%
    14:00 +5°C° 0.3 mm 5 mps 751 mmHg 85%
    15:00 +5°C° 0.3 mm 4 mps 751 mmHg 87%
    16:00 +5°C° 0.1 mm 4 mps 751 mmHg 88%
    17:00 +4°C° 0.1 mm 4 mps 751 mmHg 90%
    18:00 +4°C° 0.1 mm 4 mps 752 mmHg 91%
    19:00 +3°C° 0 mm 4 mps 752 mmHg 91%
    20:00 +3°C° 0 mm 4 mps 753 mmHg 90%
    21:00 +3°C° 0 mm 4 mps 753 mmHg 90%
    22:00 +3°C° 0 mm 4 mps 754 mmHg 90%
    23:00 +3°C° 0 mm 4 mps 754 mmHg 90%

    17 December, Monday

    Time Temperature Precipitation Wind Pressure Humidity
    00:00 +3°C° 0 mm 4 mps 754 mmHg 90%
    01:00 +3°C° 0 mm 4 mps 755 mmHg 90%
    02:00 +3°C° 0 mm 4 mps 755 mmHg 90%
    03:00 +3°C° 0 mm 4 mps 755 mmHg 91%
    04:00 +1°C° 0 mm 4 mps 755 mmHg 91%
    05:00 +2°C° 0 mm 3 mps 756 mmHg 91%
    06:00 +2°C° 0 mm 3 mps 756 mmHg 91%
    07:00 +1°C° 0 mm 4 mps 756 mmHg 91%
    08:00 +1°C° 0 mm 4 mps 756 mmHg 91%
    09:00 +3°C° 0 mm 4 mps 756 mmHg 91%
    10:00 +3°C° 0 mm 5 mps 756 mmHg 89%
    11:00 +4°C° 0 mm 6 mps 756 mmHg 87%
    12:00 +5°C° 0 mm 6 mps 756 mmHg 85%
    13:00 +5°C° 0 mm 7 mps 755 mmHg 85%
    14:00 +5°C° 0 mm 7 mps 754 mmHg 85%
    15:00 +6°C° 0 mm 8 mps 753 mmHg 85%
    16:00 +6°C° 0.2 mm 9 mps 753 mmHg 85%
    17:00 +7°C° 0.2 mm 9 mps 752 mmHg 85%
    18:00 +7°C° 0.2 mm 10 mps 751 mmHg 86%
    19:00 +8°C° 0.7 mm 10 mps 751 mmHg 85%
    20:00 +8°C° 0.7 mm 10 mps 750 mmHg 85%
    21:00 +8°C° 0.7 mm 11 mps 749 mmHg 85%
    22:00 +9°C° 1 mm 11 mps 749 mmHg 84%
    23:00 +9°C° 1 mm 11 mps 748 mmHg 83%

    18 December, Tuesday

    Time Temperature Precipitation Wind Pressure Humidity
    00:00 +11°C° 1 mm 11 mps 748 mmHg 82%
    01:00 +11°C° 0.2 mm 11 mps 747 mmHg 81%
    02:00 +11°C° 0.2 mm 11 mps 746 mmHg 80%
    03:00 +11°C° 0.2 mm 11 mps 745 mmHg 79%
    04:00 +10°C° 0.3 mm 12 mps 745 mmHg 79%
    05:00 +9°C° 0.3 mm 12 mps 745 mmHg 80%
    06:00 +9°C° 0.3 mm 12 mps 744 mmHg 81%
    07:00 +9°C° 0.5 mm 12 mps 743 mmHg 80%
    08:00 +9°C° 0.5 mm 13 mps 743 mmHg 78%
    09:00 +9°C° 0.5 mm 14 mps 742 mmHg 77%
    10:00 +8°C° 1.1 mm 13 mps 741 mmHg 78%
    11:00 +8°C° 1.1 mm 13 mps 741 mmHg 79%
    12:00 +8°C° 1.1 mm 13 mps 741 mmHg 79%
    13:00 +7°C° 0.5 mm 10 mps 741 mmHg 80%
    14:00 +8°C° 0.5 mm 7 mps 742 mmHg 82%
    15:00 +8°C° 0.5 mm 4 mps 742 mmHg 83%
    16:00 +7°C° 0.1 mm 5 mps 742 mmHg 83%
    17:00 +7°C° 0.1 mm 5 mps 743 mmHg 84%
    18:00 +6°C° 0.1 mm 5 mps 743 mmHg 84%
    19:00 +6°C° 0 mm 5 mps 743 mmHg 84%
    20:00 +5°C° 0 mm 6 mps 744 mmHg 84%
    21:00 +5°C° 0 mm 6 mps 744 mmHg 83%
    22:00 +5°C° 0.1 mm 6 mps 745 mmHg 82%
    23:00 +5°C° 0.1 mm 6 mps 745 mmHg 82%
    Show more